Weather History for Newberry, MI

Change the Weather History Date:

Monday, January 27, 2014

  Actual Average Record
Temperature  
Mean Temperature -2 °F -  
Max Temperature 4 °F 22 °F 41 °F (2006)
Min Temperature -8 °F 6 °F -19 °F (1918)
Degree Days  
Heating Degree Days 68    
Moisture  
Dew Point -6 °F    
Average Humidity 85    
Maximum Humidity 89    
Minimum Humidity 81    
Precipitation  
Precipitation 0.00 in - - ()
Sea Level Pressure  
Sea Level Pressure 29.81 in    
Wind  
Wind Speed 12 mph (WNW)    
Max Wind Speed 25 mph    
Max Gust Speed 33 mph    
Visibility 1 miles    
Events Snow    
Averages and records for this station are not official NWS values.
T = Trace of Precipitation, MM = Missing Value Source: NWS Daily Summary

Daily Weather History Graph

Daily Weather History Graph

Search for Another Location

Airport:

Trip Planner

Search our weather history database for the weather conditions in past years. The results will help you decide how hot, cold, wet, or windy it might be!

Date:

Astronomy

Jan. 27, 2014 Rise Set
Actual Time 8:10 AM EST 5:39 PM EST
Civil Twilight 7:38 AM EST 6:11 PM EST
Nautical Twilight 7:01 AM EST 6:48 PM EST
Astronomical Twilight 6:26 AM EST 7:23 PM EST
Moon 4:53 AM EST (1/27) 2:21 PM EST (1/27)
Length of Visible Light 10h 33m
Length of Day
9h 28m
Waning Crescent, 15% of the Moon is Illuminated
Jan 27
Waning Crescent
Jan 30
New
Feb 6
First Quarter
Feb 14
Full
Feb 22
Last Quarter

Hourly Weather History & Observations

Time (EST) Temp. Windchill Dew Point Humidity Pressure Visibility Wind Dir Wind Speed Gust Speed Precip Events Conditions
12:15 AM -0.4 °F -12.0 °F -3.1 °F 88% 29.40 in 2.0 mi NW 5.8 mph - N/A Snow Light Snow
12:35 AM -1.1 °F -12.9 °F -3.8 °F 88% 29.41 in 4.0 mi WNW 5.8 mph - N/A Snow Light Snow
12:55 AM -0.2 °F -13.2 °F -2.9 °F 88% 29.42 in 2.5 mi WNW 6.9 mph - N/A Snow Light Snow
1:15 AM 2.1 °F -11.6 °F -0.8 °F 88% 29.44 in 1.8 mi NW 8.1 mph - N/A Snow Light Snow
1:35 AM 3.0 °F -9.3 °F 0.5 °F 89% 29.46 in 1.0 mi NNW 6.9 mph - N/A Snow Light Snow
1:55 AM 3.7 °F -10.6 °F 1.0 °F 89% 29.47 in 1.5 mi North 9.2 mph - N/A Snow Light Snow
2:15 AM 3.9 °F -11.3 °F 0.5 °F 86% 29.49 in 1.8 mi NNW 10.4 mph 20.7 mph N/A Snow Light Snow
2:35 AM 3.6 °F -10.9 °F -0.0 °F 85% 29.51 in 1.8 mi NNW 9.2 mph 20.7 mph N/A Snow Light Snow
2:55 AM 3.2 °F -13.9 °F -0.4 °F 85% 29.54 in 1.0 mi NNW 12.7 mph 19.6 mph N/A Snow Light Snow
3:15 AM 2.7 °F -12.9 °F -0.4 °F 87% 29.55 in 0.8 mi North 10.4 mph 17.3 mph N/A Snow Light Snow
3:35 AM 2.3 °F -12.4 °F -0.8 °F 87% 29.57 in 0.8 mi NNW 9.2 mph - N/A Snow Snow
3:54 AM 2.3 °F -12.4 °F -0.9 °F 86% 29.58 in 1.0 mi NNW 9.2 mph 18.4 mph N/A Snow Light Snow
4:15 AM 1.8 °F -16.4 °F -2.6 °F 82% 29.60 in 2.0 mi NNW 13.8 mph 18.4 mph N/A Snow Light Snow
4:35 AM 1.2 °F -16.4 °F -2.6 °F 84% 29.61 in 1.8 mi NNW 12.7 mph 17.3 mph N/A Snow Light Snow
4:55 AM 0.9 °F -14.2 °F -2.7 °F 85% 29.63 in 1.5 mi NNW 9.2 mph 16.1 mph N/A Snow Light Snow
5:15 AM 0.5 °F -13.6 °F -2.6 °F 87% 29.64 in 1.5 mi NNW 8.1 mph - N/A Snow Light Snow
5:35 AM 0.3 °F -13.8 °F -3.1 °F 85% 29.66 in 1.2 mi NNW 8.1 mph - N/A Snow Light Snow
5:55 AM 0.5 °F -14.6 °F -3.1 °F 85% 29.67 in 1.0 mi NNW 9.2 mph - N/A Snow Light Snow
6:15 AM 0.1 °F -11.4 °F -3.1 °F 86% 29.69 in 1.2 mi NNW 5.8 mph - N/A Snow Light Snow
6:35 AM 0.3 °F -12.6 °F -3.1 °F 85% 29.70 in 1.2 mi NW 6.9 mph - N/A Snow Light Snow
6:55 AM 0.3 °F -13.8 °F -2.6 °F 88% 29.71 in 0.8 mi NNW 8.1 mph - N/A Snow Snow
7:15 AM 0.3 °F -11.2 °F -3.1 °F 85% 29.73 in 1.8 mi NNW 5.8 mph - N/A Snow Light Snow
7:35 AM 0.3 °F -9.5 °F -3.1 °F 85% 29.74 in 2.5 mi NW 4.6 mph - N/A Snow Light Snow
7:55 AM 0.1 °F -14.0 °F -3.3 °F 85% 29.75 in 2.0 mi WNW 8.1 mph - N/A Snow Light Snow
8:15 AM 0.3 °F -15.8 °F -3.1 °F 85% 29.76 in 0.8 mi WNW 10.4 mph - N/A Snow Light Snow
8:35 AM 0.3 °F -19.6 °F -3.1 °F 85% 29.77 in 0.8 mi West 16.1 mph 26.5 mph N/A Snow Light Snow
8:55 AM -0.6 °F -19.4 °F -4.0 °F 85% 29.78 in 0.5 mi West 13.8 mph 21.9 mph N/A Snow Light Snow
9:15 AM -0.6 °F -18.6 °F -4.0 °F 85% 29.79 in 0.5 mi West 12.7 mph 18.4 mph N/A Snow Light Snow
9:35 AM -0.8 °F -16.2 °F -4.0 °F 86% 29.81 in 0.8 mi West 9.2 mph 18.4 mph N/A Snow Light Snow
9:55 AM -0.8 °F -18.9 °F -4.0 °F 86% 29.82 in 0.5 mi WNW 12.7 mph 18.4 mph N/A Snow Light Snow
10:15 AM -0.9 °F -20.6 °F -4.2 °F 86% 29.83 in 0.5 mi WNW 15.0 mph 24.2 mph N/A Snow Light Snow
10:35 AM -0.8 °F -16.2 °F -4.4 °F 85% 29.84 in 1.0 mi West 9.2 mph 16.1 mph N/A Snow Light Snow
10:55 AM -0.8 °F -18.0 °F -4.5 °F 84% 29.84 in 1.5 mi West 11.5 mph - N/A Snow Light Snow
11:15 AM -0.9 °F -21.2 °F -4.7 °F 84% 29.85 in 0.8 mi West 16.1 mph 20.7 mph N/A Snow Light Snow
11:35 AM -1.3 °F -22.9 °F -5.3 °F 83% 29.86 in 0.5 mi West 18.4 mph 28.8 mph N/A Snow Light Snow
11:55 AM -2.0 °F -25.0 °F -5.8 °F 84% 29.87 in 0.5 mi West 20.7 mph 27.6 mph N/A Snow Light Snow
12:15 PM -2.7 °F -25.4 °F -6.2 °F 85% 29.87 in 0.2 mi WSW 19.6 mph 25.3 mph N/A Snow Snow
12:35 PM -3.1 °F -25.3 °F -6.5 °F 85% 29.88 in 0.5 mi West 18.4 mph 25.3 mph N/A Snow Light Snow
12:55 PM -3.1 °F -27.4 °F -6.7 °F 85% 29.89 in 0.2 mi West 23.0 mph 32.2 mph N/A Snow Snow
1:15 PM -2.7 °F -25.9 °F -6.5 °F 84% 29.90 in 0.2 mi West 20.7 mph 29.9 mph N/A Snow Light Snow
1:35 PM -2.6 °F -27.2 °F -6.7 °F 82% 29.90 in 0.2 mi West 24.2 mph 32.2 mph N/A Snow Snow
1:55 PM -2.6 °F -25.7 °F -6.9 °F 82% 29.91 in 0.5 mi West 20.7 mph 31.1 mph N/A Snow Light Snow
2:15 PM -3.5 °F -28.8 °F -7.8 °F 82% 29.91 in 0.2 mi West 25.3 mph 31.1 mph N/A Snow Light Snow
2:36 PM -4.0 °F -28.1 °F -8.1 °F 82% 29.91 in 0.2 mi West 21.9 mph 32.2 mph N/A Snow Light Snow
2:55 PM -3.6 °F -29.1 °F -8.0 °F 82% 29.91 in 0.5 mi West 25.3 mph 29.9 mph N/A Snow Light Snow
3:15 PM -3.3 °F -26.6 °F -7.8 °F 81% 29.92 in 0.8 mi West 20.7 mph 27.6 mph N/A   Haze
3:35 PM -3.6 °F -27.6 °F -8.0 °F 82% 29.93 in 0.5 mi WSW 21.9 mph 33.4 mph N/A Snow Light Snow
3:55 PM -4.0 °F -29.1 °F -8.1 °F 82% 29.94 in 0.5 mi West 24.2 mph 33.4 mph N/A Snow Light Snow
4:15 PM -4.0 °F -28.1 °F -8.1 °F 82% 29.94 in 0.8 mi West 21.9 mph 32.2 mph N/A Snow Light Snow
4:35 PM -4.0 °F -25.8 °F -8.0 °F 83% 29.95 in 0.5 mi West 17.3 mph 25.3 mph N/A Snow Light Snow
4:55 PM -4.0 °F -25.8 °F -7.6 °F 85% 29.96 in 0.5 mi WSW 17.3 mph 23.0 mph N/A Snow Light Snow
5:15 PM -4.0 °F -24.5 °F -7.6 °F 85% 29.96 in 0.8 mi West 15.0 mph 20.7 mph N/A Snow Light Snow
5:35 PM -4.0 °F -24.5 °F -7.6 °F 85% 29.96 in 0.8 mi West 15.0 mph - N/A Snow Light Snow
5:55 PM -4.0 °F -27.6 °F -7.8 °F 84% 29.97 in 0.8 mi West 20.7 mph 25.3 mph N/A Snow Light Snow
6:15 PM -4.2 °F -26.1 °F -8.1 °F 83% 29.97 in 1.5 mi WSW 17.3 mph 25.3 mph N/A Snow Light Snow
6:35 PM -4.2 °F -26.7 °F -8.1 °F 83% 29.98 in 1.8 mi West 18.4 mph 23.0 mph N/A Snow Light Snow
6:55 PM -4.4 °F -24.2 °F -8.5 °F 82% 29.98 in 2.0 mi WSW 13.8 mph 21.9 mph N/A Snow Light Snow
7:15 PM -4.4 °F -26.3 °F -8.1 °F 84% 29.99 in 1.8 mi WSW 17.3 mph 23.0 mph N/A Snow Light Snow
7:35 PM -4.4 °F -25.6 °F -8.0 °F 84% 29.99 in 1.2 mi WSW 16.1 mph 24.2 mph N/A Snow Light Snow
7:54 PM -4.5 °F -28.3 °F -8.1 °F 84% 29.99 in 1.2 mi WSW 20.7 mph 25.3 mph N/A Snow Light Snow
8:15 PM -4.5 °F -25.9 °F -8.1 °F 84% 29.99 in 1.5 mi WSW 16.1 mph 20.7 mph N/A Snow Light Snow
8:35 PM -4.9 °F -27.0 °F -8.5 °F 84% 29.99 in 1.2 mi WSW 17.3 mph 24.2 mph N/A Snow Light Snow
8:55 PM -5.3 °F -29.2 °F -8.7 °F 85% 29.99 in 1.2 mi WSW 20.7 mph 25.3 mph N/A Snow Light Snow
9:15 PM -5.3 °F -26.8 °F -8.9 °F 84% 29.99 in 1.2 mi WSW 16.1 mph 24.2 mph N/A Snow Light Snow
9:35 PM -5.4 °F -28.9 °F -9.4 °F 83% 29.99 in 1.8 mi WSW 19.6 mph 26.5 mph N/A Snow Light Snow
9:55 PM -6.0 °F -29.0 °F -10.3 °F 82% 29.99 in 2.5 mi WSW 18.4 mph 24.2 mph N/A   Overcast
10:15 PM -6.7 °F -29.3 °F -10.7 °F 83% 29.99 in 3.0 mi WSW 17.3 mph 25.3 mph N/A   Mostly Cloudy
10:35 PM -6.9 °F -31.4 °F -10.7 °F 84% 29.99 in 3.0 mi WSW 20.7 mph 26.5 mph N/A   Scattered Clouds
10:56 PM -7.1 °F -31.6 °F -11.0 °F 83% 29.99 in 2.5 mi WSW 20.7 mph 25.3 mph N/A   Scattered Clouds
11:15 PM -7.6 °F -29.8 °F -11.4 °F 84% 30.00 in 3.0 mi WSW 16.1 mph - N/A   Clear
11:35 PM -8.1 °F -31.2 °F -12.3 °F 82% 30.01 in 5.0 mi WSW 17.3 mph 24.2 mph N/A   Clear
11:55 PM -8.1 °F -31.2 °F -12.3 °F 82% 30.01 in 3.0 mi WSW 17.3 mph 23.0 mph N/A   Clear